BMCB-19 Weather Reports


time (UTC)temp
C
wind
direction
speed
KPH
gust
KPH
rain 1hr
cm
rain 24hr
cm
rain mn
cm
humidity
%
barometer
mb
20260507161000 13 0 0.0 0.0 0.00 0.00 0.00 64 1016.9
20260507154959 13 0 0.0 0.0 0.00 0.00 0.00 65 1016.9
20260507153959 13 0 0.0 0.0 0.00 0.00 0.00 63 1016.9
20260507151959 13 0 0.0 0.0 0.00 0.00 0.00 61 1016.9
20260507150959 13 0 0.0 0.0 0.00 0.00 0.00 59 1016.9
20260507144959 13 0 0.0 0.0 0.00 0.00 0.00 63 1017.0
20260507143959 13 0 0.0 0.0 0.00 0.00 0.00 63 1016.9
20260507141959 13 0 0.0 0.0 0.00 0.00 0.00 66 1017.0
20260507140959 13 0 0.0 0.0 0.00 0.00 0.00 65 1017.2
20260507134959 13 0 0.0 0.0 0.00 0.00 0.00 64 1017.2
20260507133959 13 0 0.0 0.0 0.00 0.00 0.00 66 1017.2
20260507132959 13 0 0.0 0.0 0.00 0.00 0.00 68 1017.2
20260507131959 12 0 0.0 0.0 0.00 0.00 0.00 66 1017.2
20260507130959 12 0 0.0 0.0 0.00 0.00 0.00 68 1017.2
20260507130000 12 0 0.0 0.0 0.00 0.00 0.00 68 1017.2
20260507123959 12 0 0.0 0.0 0.00 0.00 0.00 66 1017.3
20260507122000 12 0 0.0 0.0 0.00 0.00 0.00 68 1017.2
20260507120959 12 0 0.0 0.0 0.00 0.00 0.00 68 1017.2
20260507120000 12 0 0.0 0.0 0.00 0.00 0.00 69 1017.2
20260507115000 12 0 0.0 0.0 0.00 0.00 0.00 68 1017.2
20260507112959 12 0 0.0 0.0 0.00 0.00 0.00 68 1017.2
20260507112000 12 0 0.0 0.0 0.00 0.00 0.00 70 1017.1
20260507105959 12 0 0.0 0.0 0.00 0.00 0.00 70 1017.3
20260507105000 12 0 0.0 0.0 0.00 0.03 0.00 70 1017.3
20260507104000 12 0 0.0 0.0 0.00 0.03 0.00 70 1017.3
20260507103000 12 0 0.0 0.0 0.00 0.03 0.00 72 1017.3
20260507100000 11 0 0.0 0.0 0.00 0.03 0.00 72 1017.3
20260507095000 11 0 0.0 0.0 0.00 0.03 0.00 72 1017.3
20260507094000 11 0 0.0 0.0 0.00 0.03 0.00 75 1017.3
20260507093000 11 0 0.0 0.0 0.00 0.03 0.00 75 1017.2
20260507092002 11 0 0.0 0.0 0.00 0.05 0.00 76 1017.1
20260507085000 10 0 0.0 0.0 0.00 0.05 0.00 78 1017.1
20260507083000 10 0 0.0 0.0 0.00 0.08 0.00 79 1017.0
20260507082000 10 0 0.0 0.0 0.00 0.08 0.00 80 1017.0
20260507081000 10 0 0.0 0.0 0.00 0.08 0.00 80 1016.9
20260507080001 10 0 0.0 0.0 0.00 0.08 0.00 82 1016.8
20260507075000 10 0 0.0 0.0 0.00 0.08 0.00 83 1016.9
20260507074000 9 0 0.0 0.0 0.00 0.08 0.00 84 1016.8
20260507073000 9 0 0.0 0.0 0.00 0.08 0.00 85 1016.8
20260507065001 8 0 0.0 0.0 0.00 0.08 0.00 88 1016.7
20260507063000 8 0 0.0 0.0 0.00 0.13 0.00 89 1016.5
20260507062000 8 0 0.0 0.0 0.00 0.15 0.00 90 1016.5
20260507061000 7 0 0.0 0.0 0.00 0.15 0.00 90 1016.4
20260507054000 7 0 0.0 0.0 0.00 0.20 0.00 92 1016.1
20260507053001 7 0 0.0 0.0 0.00 0.23 0.00 91 1016.0
20260507051000 7 0 0.0 0.0 0.00 0.25 0.00 91 1015.9
20260507050000 7 0 0.0 0.0 0.00 0.28 0.00 91 1015.8
20260507045001 7 0 0.0 0.0 0.00 0.30 0.00 91 1015.7
20260507044001 7 0 0.0 0.0 0.00 0.30 0.00 91 1015.6
20260507043000 7 0 0.0 0.0 0.00 0.33 0.00 92 1015.6
20260507042001 7 0 0.0 0.0 0.00 0.33 0.00 92 1015.5
20260507041001 7 0 0.0 0.0 0.00 0.33 0.00 92 1015.4
20260507040000 7 0 0.0 0.0 0.00 0.38 0.00 92 1015.4
20260507035001 7 0 0.0 0.0 0.00 0.41 0.00 92 1015.3
20260507033000 7 0 0.0 0.0 0.00 0.43 0.00 91 1015.2
20260507032000 7 0 0.0 0.0 0.00 0.43 0.00 91 1015.2
20260507031001 7 0 0.0 0.0 0.00 0.43 0.00 90 1015.2
20260507030001 7 0 0.0 0.0 0.00 0.43 0.00 90 1015.1
20260507025001 7 0 0.0 0.0 0.00 0.43 0.00 90 1015.1
20260507024001 7 0 0.0 0.0 0.00 0.43 0.00 90 1015.1
20260507023001 7 0 0.0 0.0 0.00 0.43 0.00 91 1015.1
20260507022000 7 0 0.0 0.0 0.00 0.46 0.00 91 1015.0
20260507021001 7 0 0.0 0.0 0.00 0.46 0.00 91 1014.9
20260507020001 7 0 0.0 0.0 0.00 0.48 0.00 91 1014.8
20260507015002 7 0 0.0 0.0 0.00 0.48 0.00 91 1014.7
20260507014001 7 0 0.0 0.0 0.00 0.51 0.00 91 1014.7
20260507013002 7 0 0.0 0.0 0.00 0.51 0.00 91 1014.7
20260507012001 7 0 0.0 0.0 0.00 0.51 0.00 92 1014.8
20260507011001 7 0 0.0 0.0 0.00 0.51 0.00 92 1014.7
20260507010001 7 0 0.0 0.0 0.00 0.53 0.00 93 1014.6
20260507005002 7 0 0.0 0.0 0.00 0.53 0.00 93 1014.7
20260507002001 7 0 0.0 0.0 0.00 0.61 0.00 93 1014.5
20260507001002 7 0 0.0 0.0 0.00 0.61 0.00 93 1014.5
20260507000004 7 0 0.0 0.0 0.00 0.64 0.00 93 1014.5
20260506235003 7 0 0.0 0.0 0.00 0.64 0.00 92 1014.5
20260506234005 7 0 0.0 0.0 0.00 0.66 0.00 92 1014.5
20260506233003 7 0 0.0 0.0 0.00 0.69 0.00 92 1014.4
20260506232003 7 0 0.0 0.0 0.00 0.69 0.00 91 1014.4
20260506231004 6 0 0.0 0.0 0.00 0.71 0.00 91 1014.3
20260506230005 6 0 0.0 0.0 0.00 0.71 0.00 90 1014.2
20260506225004 6 0 0.0 0.0 0.00 0.71 0.00 90 1014.2
20260506224007 6 0 0.0 0.0 0.00 0.71 0.00 90 1014.1
20260506223004 6 0 0.0 0.0 0.00 0.74 0.00 89 1014.0
20260506222004 6 0 0.0 0.0 0.00 0.74 0.00 88 1014.0
20260506221005 6 0 0.0 0.0 0.00 0.74 0.00 87 1013.9
20260506220005 7 0 0.0 0.0 0.00 0.76 0.74 87 1013.8
20260506215006 7 0 0.0 0.0 0.00 0.79 0.74 86 1013.8
20260506214008 7 0 0.0 0.0 0.00 0.79 0.74 86 1013.7
20260506213005 7 0 0.0 0.0 0.00 0.79 0.74 85 1013.6
20260506212006 7 0 0.0 0.0 0.00 0.81 0.74 85 1013.5
20260506211004 7 0 0.0 0.0 0.00 0.81 0.74 84 1013.5
20260506210004 7 0 0.0 0.0 0.00 0.84 0.74 83 1013.3
20260506205005 7 0 0.0 0.0 0.00 0.86 0.74 82 1013.2
20260506204004 8 0 0.0 0.0 0.00 0.89 0.74 81 1013.1
20260506203005 8 0 0.0 0.0 0.00 0.89 0.74 80 1012.9
20260506200005 9 0 0.0 0.0 0.00 0.91 0.74 79 1012.6
20260506195004 10 0 0.0 0.0 0.00 0.91 0.74 82 1012.5
20260506194004 10 0 0.0 0.0 0.00 0.91 0.74 84 1012.4
20260506193005 10 0 0.0 0.0 0.00 0.94 0.74 85 1012.3
20260506190006 10 0 0.0 0.0 0.00 0.94 0.74 85 1011.9
20260506185005 10 0 0.0 0.0 0.00 0.99 0.74 86 1011.8
20260506184004 10 0 0.0 0.0 0.00 0.99 0.74 85 1011.7
20260506183006 10 0 0.0 0.0 0.00 0.99 0.74 85 1011.6
20260506180004 10 0 0.0 0.0 0.00 1.02 0.74 86 1011.2
20260506175003 10 0 0.0 0.0 0.00 1.04 0.74 87 1011.1
20260506171004 10 0 0.0 0.0 0.00 1.09 0.74 90 1010.8
20260506170004 10 0 0.0 0.0 0.00 1.09 0.74 90 1010.7
20260506164004 10 0 0.0 0.0 0.00 1.09 0.74 89 1010.6